{"data":{"norad_id":48067,"epoch":"2026-05-24T23:58:41.329344Z","epoch_age_seconds":78238,"freshness":"FRESH","line1":"1 48067U 21025AB  26144.99908946 -.00000176  00000+0 -51559-3 0  9999","line2":"2 48067  87.8939 324.8406 0001660  76.8225 283.3089 13.13469074250504","mean_motion":13.13469074,"eccentricity":0.000166,"inclination_deg":87.8939,"raan_deg":324.8406,"arg_perigee_deg":76.8225,"mean_anomaly_deg":283.3089,"bstar":-0.00051559,"rev_number":25050,"period_min":109.6333388052,"perigee_km":1208.5093738401,"apogee_km":1211.0285586209,"semimajor_km":7587.9059662305,"source":"CELESTRAK","updated_at":"2026-05-25T13:38:22.392967Z"}}